Volver al catálogo

FENGYUN 1C DEB

ActivoSSO
NORAD 30735·DEBRIS·🇨🇳 China

Lanzado May 10, 1999 desde Taiyuan Satellite Launch Center

Loading…

Próximos Pases (próximas 24 horas)

TLE

ActualizadoSource: Space-Track

Época: Sep 13, 2026, 22:19 UTC

1 30735U 99025ASV 26256.93008964  .00001836  00000-0  78023-3 0  9994
2 30735  98.7478 332.2320 0060076 167.0158 250.6133 14.25534454  6604

Sigue FENGYUN 1C DEB en tiempo real con AllMySat

Download on the App Store